Regional Weather Roundup
Issued by NWS

Home | Current Version | Previous Version | Graphics & Text | Print | Product List | Glossary On
Versions: 1 2 3 4 5 6 7 8 9 10 11 12 13 14 15 16 17 18 19 20 21 22 23 24 25 26 27 28 29 30 31 32 33 34 35 36 37 38 39 40 41 42 43 44 45 46 47 48 49 50
822
ASUS45 KABQ 281110
RWRNM
NEW MEXICO REGIONAL WEATHER ROUNDUP
NATIONAL WEATHER SERVICE ALBUQUERQUE NM
500 AM MDT FRI APR 28 2017

NOTE: "FAIR" MEANS FEW OR NO CLOUDS BELOW 12,000 FEET AGL WITH NO
       SIGNIFICANT WEATHER OR OBSTRUCTIONS TO VISION.

      THIS PRODUCT IS RELEASED AS TWO VERSIONS.  ONE VERSION NEAR
      THE TOP OF THE HOUR CONTAINING PRELIMINARY DATA FROM ALBUQUERQUE
      AND OTHER STATIONS.  A FINAL VERSION WITH ADDITIONAL DATA IS
      ISSUED ABOUT 10 MINUTES AFTER THE HOUR.

NMZ501-503-504-510>518-281200-
NORTHWEST PLATEAU/NORTHCENTRAL MOUNTAINS

CITY           SKY/WX    TMP DP  RH WIND       PRES   REMARKS
FARMINGTON     CLOUDY    41  26  55 SW10      29.76F
LOS ALAMOS     MOCLDY    35  24  63 N8G18     29.78R WCI  29
SANTA FE       FAIR      39  24  55 N14G20    29.75S WCI  31
TAOS             N/A     36  19  51 CALM      29.78F
ANGEL FIRE     LGT SNOW  28  25  88 CALM      29.78F

$$
NMZ402-403-502-505>509-281200-
WESTCENTRAL MOUNTAINS/SOUTHWEST MOUNTAINS

CITY           SKY/WX    TMP DP  RH WIND       PRES   REMARKS
GALLUP         CLOUDY    38  30  73 N18       29.79R WCI  28
GRANTS         CLOUDY    42  22  46 NW13G21   29.78S
SILVER CITY    FAIR      54  32  43 CALM      29.78S

$$
NMZ407-409-411-412-281200-
SOUTHERN DESERTS

CITY           SKY/WX    TMP DP  RH WIND       PRES   REMARKS
DEMING         FAIR      62  35  36 W16       29.74R
LAS CRUCES     FAIR      66  33  29 SW15G21   29.75S
HOLLOMAN AFB   FAIR      62  31  31 SE9       29.70F
ALAMOGORDO     FAIR      59  32  36 SW3       29.69R
T OR C         FAIR      64  29  26 VRB3      29.69S

$$
NMZ519>523-281200-
CENTRAL VALLEYS/CENTRAL HIGHLANDS

CITY           SKY/WX    TMP DP  RH WIND       PRES   REMARKS
ALBUQUERQUE    FAIR      46  26  45 N7        29.75F
MORIARTY ARPT  FAIR      36  27  69 S3        29.78S
CLINES CORNERS FAIR      30  21  69 W12       29.77S WCI  20
BELEN          FAIR      42  27  55 CALM      29.76R
SOCORRO        FAIR      50  28  41 N8        29.73F

$$
NMZ524>526-539-540-281200-
SOUTHCENTRAL MOUNTAINS

CITY           SKY/WX    TMP DP  RH WIND       PRES   REMARKS
RUIDOSO        FAIR      54  25  32 NW8       29.79S

$$
NMZ527>531-281200-
NORTHEAST HIGHLANDS/NORTHEAST PLAINS

CITY           SKY/WX    TMP DP  RH WIND       PRES   REMARKS
LAS VEGAS      FAIR      33  20  58 N9        29.73S WCI  25
RATON          FAIR      38  16  40 SW14      29.69R WCI  30
CLAYTON        MOCLDY    42  37  82 SW7       29.69R

$$
NMZ532>537-281200-
EASTCENTRAL PLAINS

CITY           SKY/WX    TMP DP  RH WIND       PRES   REMARKS
SANTA ROSA     FAIR      41  28  59 CALM      29.71R
TUCUMCARI      FAIR      51  34  52 CALM      29.67R
CANNON AFB     FAIR      50  26  38 NW9       29.69R
CLOVIS AIRPORT FAIR      46  27  46 N8        29.69S

$$
NMZ028-029-538-281200-
SOUTHEAST PLAINS

CITY           SKY/WX    TMP DP  RH WIND       PRES   REMARKS
ROSWELL        FAIR      54  31  41 N7          N/A
ARTESIA        FAIR      55  32  41 VRB3      29.68R
CARLSBAD       FAIR      64  34  32 N8        29.65R
HOBBS          FAIR      57  39  51 N9        29.67S


$$




USA.gov is the U.S. government's official web portal to all federal, state and local government web resources and services.